{"data":{"norad_id":65633,"epoch":"2026-05-24T18:29:17.488320Z","epoch_age_seconds":101621,"freshness":"FRESH","line1":"1 65633U 25210M   26144.77034130  .00029919  00000+0  89295-3 0  9990","line2":"2 65633  53.1599 312.6824 0000901  87.6327 272.4778 15.34405801 39398","mean_motion":15.34405801,"eccentricity":9.01e-5,"inclination_deg":53.1599,"raan_deg":312.6824,"arg_perigee_deg":87.6327,"mean_anomaly_deg":272.4778,"bstar":0.00089295,"rev_number":3939,"period_min":93.847403278945,"perigee_km":462.06964031476,"apogee_km":463.30235661908,"semimajor_km":6840.8229984669,"source":"CELESTRAK","updated_at":"2026-05-25T13:38:20.883141Z"}}